Home   Weather   Khabarovsk   Past weeks

Flag for Russia Past Weather in Khabarovsk, Russia — Yesterday and Last 2 Weeks

28 °F


Feels Like: 17 °F
Forecast: 24 / 39 °F
Wind: 15 mph from West

Location: Habarovsk

Current Time: Oct 25, 2016 at 2:05:50 AM

Latest Report: Oct 25, 2016 at 1:30 AM

Visibility: 10 mi

Pressure: 29.92 "Hg

Humidity: 47%

Dew Point: 10 °F

Location of KhabarovskLocation

Past Weather in Khabarovsk — Graph


Khabarovsk Temperature Yesterday

Maximum temperature yesterday: 37 °F (at 3:30 PM)
Minimum temperature yesterday: 23 °F (at 1:30 AM)
Average temperature yesterday: 29 °F

High & Low Weather Summary for the Past Weeks

High59 °F (Oct 15, 3:30 PM)100% (Oct 17, 9:00 AM)30.21 "Hg (Oct 17, 9:00 AM)
Low18 °F (Oct 21, 7:30 AM)22% (Oct 14, 3:30 PM)29.56 "Hg (Oct 17, 2:00 PM)
Average36 °F54%29.96 "Hg
* Reported Oct 10 1:00 AM — Oct 25 1:00 AM, Khabarovsk, Weather by CustomWeather, © 2016

Note: Actual official high and low records may vary slightly from our data, if they occured in-between our weather recording intervals... More about our weather records


Khabarovsk Weather History for the Previous 24 Hours

Scroll right to see more
Time TempWeatherWind HumidityBarometerVisibility
1:00 AM
Tue, Oct 25
28 °FClear.15 mph47%29.92 "Hg10 mi
12:30 AM28 °FClear.15 mph43%29.92 "Hg10 mi
12:00 AM28 °FClear.15 mph43%29.92 "Hg10 mi
11:30 PM
Mon, Oct 24
28 °FClear.17 mph43%29.92 "Hg10 mi
11:00 PM30 °FClear.17 mph40%29.92 "Hg10 mi
10:30 PM30 °FClear.17 mph40%29.92 "Hg10 mi
10:00 PM30 °FClear.17 mph40%29.92 "Hg10 mi
9:30 PM32 °FClear.17 mph37%29.89 "Hg10 mi
9:00 PM32 °FClear.17 mph37%29.89 "Hg10 mi
8:30 PM32 °FClear.15 mph37%29.89 "Hg10 mi
8:00 PM32 °FClear.15 mph37%29.89 "Hg10 mi
7:30 PM32 °FClear.15 mph37%29.86 "Hg10 mi
7:00 PM34 °FClear.17 mph32%29.86 "Hg10 mi
6:30 PM34 °FClear.17 mph29%29.86 "Hg10 mi
6:00 PM34 °FClear.20 mph29%29.83 "Hg10 mi
5:30 PM36 °FSunny.17 mph27%29.83 "Hg10 mi
5:00 PM36 °FSunny.15 mph25%29.83 "Hg10 mi
4:30 PM36 °FSunny.24 mph25%29.83 "Hg10 mi
4:00 PM37 °FSunny.24 mph23%29.80 "Hg10 mi
3:30 PM37 °FSunny.22 mph23%29.80 "Hg10 mi
3:00 PM36 °FSunny.20 mph25%29.80 "Hg10 mi
2:30 PM36 °FSunny.20 mph25%29.80 "Hg10 mi
2:00 PM36 °FSunny.22 mph23%29.80 "Hg10 mi
1:30 PM34 °FSunny.24 mph25%29.83 "Hg10 mi
1:00 PM34 °FSunny.22 mph25%29.83 "Hg10 mi
12:30 PM34 °FPassing clouds.22 mph25%29.83 "HgN/A
12:00 PM32 °FPassing clouds.24 mph27%29.83 "HgN/A
11:30 AM30 °FSunny.24 mph31%29.83 "Hg10 mi
11:00 AM30 °FSunny.24 mph31%29.80 "Hg10 mi
10:30 AM28 °FSunny.20 mph40%29.83 "Hg10 mi
10:00 AM28 °FSunny.22 mph37%29.83 "Hg10 mi
9:30 AM27 °FSunny.22 mph43%29.83 "Hg10 mi
9:00 AM25 °FSunny.17 mph46%29.83 "Hg10 mi
8:30 AM25 °FSunny.22 mph46%29.80 "Hg10 mi
8:00 AM23 °FSunny.22 mph54%29.80 "Hg10 mi
7:30 AM23 °FClear.22 mph50%29.80 "Hg10 mi
7:00 AM23 °FClear.22 mph50%29.80 "Hg10 mi
6:30 AM23 °FClear.20 mph50%29.80 "Hg10 mi
6:00 AM23 °FClear.20 mph50%29.80 "Hg10 mi
5:30 AM23 °FClear.20 mph50%29.80 "Hg10 mi
5:00 AM23 °FClear.20 mph50%29.80 "Hg10 mi
4:30 AM25 °FClear.20 mph46%29.80 "Hg10 mi
4:00 AM23 °FClear.20 mph50%29.83 "Hg10 mi
3:30 AM23 °FClear.20 mph50%29.83 "Hg10 mi
3:00 AM23 °FClear.17 mph54%29.83 "Hg10 mi
2:30 AM23 °FClear.20 mph54%29.83 "Hg10 mi
2:00 AM23 °FClear.20 mph54%29.83 "Hg10 mi
Weather by CustomWeather, © 2016

See weather overviewHow to use our weather pages